[[{"header":{"parameterUnit":"m.s-1","parameterCategory":1,"la1":30.2991,"la2":30.254,"lo1":-89.0895,"lo2":-89.0444,"dy":0.0017,"dx":0.0017,"nx":28,"ny":28,"refTime":"2024-06-19T21:00:00:Z","depth":0,"parameterNumber":2,"parameterNumberName":"U-component_of_WINDS"},"data":[0,0,0,0,0,0,0,0,0,0,0,0,0,0,0,0,0,0,0,0,0,0,0,0,0,0,0,0,0,0,0,0,0,0,0,0,0,0,0,0,0,0,0,0,0,0,0,0,0,0,0,0,0,0,0,0,0,0,-5.8307,-5.8307,0,-5.8336,-5.8336,-5.8336,-5.8133,-5.8127,-5.8122,-5.8116,-5.8147,-5.8153,-5.8159,0,0,0,0,0,0,0,0,0,0,0,0,0,-5.8076,-5.8081,-5.8307,-5.8307,-5.8307,-5.8336,-5.8336,-5.8336,-5.8134,-5.8127,-5.812,-5.8114,-5.8145,-5.8152,-5.816,0,0,0,0,0,0,0,0,0,0,0,0,0,-5.8148,-5.8083,-5.8307,-5.821,-5.8201,-5.8335,-5.8336,-5.8336,-5.8135,-5.8127,-5.8118,-5.811,-5.8143,-5.8151,-5.8161,-5.8389,0,0,-5.8189,-5.8193,0,0,0,0,0,0,0,0,-5.8144,-5.8157,-5.8224,-5.8217,-5.8207,-5.8222,-5.8266,-5.8354,-5.8138,-5.8161,-5.8116,-5.8106,-5.8179,-5.8185,-5.8209,-5.8391,-5.8392,-5.819,-5.8195,-5.8199,-5.8202,0,0,0,0,0,0,0,-5.814,-5.8154,-5.8318,-5.8225,-5.8215,-5.8165,-5.8166,-5.8282,-5.8218,-5.8158,-5.8143,-5.8149,-5.8173,-5.8201,-5.8208,-5.8393,-5.8189,-5.8198,-5.8203,-5.8207,-5.8762,-5.8771,0,0,0,0,0,0,-5.8147,-5.8152,-5.8317,-5.8319,-5.8154,-5.8176,-5.8177,-5.8226,-5.8216,-5.8206,-5.8157,-5.814,-5.8189,-5.8198,-5.8208,-5.8474,-5.8199,-5.8208,-5.8213,-5.8753,-5.8764,-5.8774,0,0,0,0,0,0,-5.8143,-5.8164,-5.8316,-5.8231,-5.8247,-5.8189,-5.8246,-5.8231,-5.8258,-5.8215,-5.8202,-5.8197,-5.8183,-5.8195,-5.8345,-5.8473,-5.8212,-5.822,-5.8742,-5.8757,-5.8769,-5.9009,0,0,0,0,0,0,-5.8138,-5.8164,-5.825,-5.8235,-5.8252,-5.8453,-5.8254,-5.8238,-5.8275,-5.8253,-5.8249,-5.824,-5.8177,-5.8333,-5.8355,-5.8481,-5.8228,-5.8731,-5.8749,-5.8765,-5.899,-5.903,-5.9064,0,0,0,0,0,-5.813,-5.8317,-5.8256,-5.8277,-5.8359,-5.8461,-5.8471,-5.8394,-5.8286,-5.8372,-5.8344,-5.824,-5.8456,-5.835,-5.8373,-5.8504,-5.8722,-5.8743,-5.8764,-5.8973,-5.9022,-5.9063,0,0,0,0,0,0,-5.835,-5.8313,-5.8245,-5.8432,-5.8451,-5.8426,-5.8533,-5.8448,-5.8498,-5.8476,-5.8378,-5.8379,-5.8545,-5.8539,-5.8422,-5.8724,-5.857,-5.8596,-5.8721,-5.8767,-5.8804,-5.8801,-5.8235,0,0,0,0,0,-5.842,-5.8506,-5.8469,-5.8639,-5.8651,-5.8592,-5.8633,-5.8572,-5.8587,-5.8595,-5.8577,-5.8597,-5.8668,-5.8717,-5.8781,-5.8988,-5.8984,-5.9089,-5.9126,-5.9157,-5.9181,-5.9289,-5.9335,-5.8842,-5.8842,-5.8842,0,0,-5.8566,-5.8557,-5.8617,-5.8683,-5.869,-5.8781,-5.8599,-5.8703,-5.877,-5.861,-5.875,-5.8739,-5.8754,-5.8934,-5.9012,-5.8934,-5.9316,-5.9183,-5.9208,-5.9215,-5.9315,-5.9362,-5.9403,-5.8856,-5.8854,-5.8852,0,0,-5.8878,-5.888,-5.9021,-5.9032,-5.9045,-5.9003,-5.9038,-5.9026,-5.9012,-5.9151,-5.9033,-5.9111,-5.9237,-5.9252,-5.9276,-5.9595,-5.9501,-5.9618,-5.9811,-5.9918,-5.9956,-5.999,-6.0103,-6.0145,-5.9642,-5.9643,-5.9643,0,-5.9058,-5.919,-5.9104,-5.9216,-5.9248,-5.9107,-5.9248,-5.9264,-5.9298,-5.9323,-5.9235,-5.9389,-5.939,-5.957,-5.9648,-5.9673,-5.9708,-5.9618,-5.9958,-5.9991,-6.0021,-6.0127,-6.017,-5.9657,-5.9655,-5.9654,-5.9652,0,-5.941,-5.9503,-5.9615,-5.9651,-5.9695,-5.9822,-5.9755,-5.9811,-5.9746,-5.9714,-5.9857,-5.9853,-5.9913,-5.9951,-5.989,-6.0124,-6.0075,-5.9975,-5.9817,-6.0084,-6.0182,-6.0222,-5.9677,-5.9672,-5.9668,-5.9664,0,0,-5.986,-5.9846,-5.9889,-5.9903,-5.9907,-5.9978,-6.0098,-6.0156,-6.0205,-6.0234,-6.0331,-6.0441,-6.0348,-6.0376,-6.0315,-6.0409,-6.066,-6.0296,-6.0294,-6.0363,-6.0916,-6.0991,-6.104,-6.0598,-6.0605,-6.0611,-6.0914,0,-6.0164,-6.0367,-6.0293,-6.0501,-6.0586,-6.0454,-6.0558,-6.0573,-6.0546,-6.0615,-6.0585,-6.0664,-6.0535,-6.0551,-6.0638,-6.0611,-6.0769,-6.0588,-6.0688,-6.0692,-6.0687,-6.1091,-6.117,-6.1456,-6.0952,-6.0959,-6.0963,0,-6.0545,-6.0588,-6.0805,-6.0794,-6.0826,-6.0922,-6.0968,-6.1036,-6.1049,-6.1023,-6.1055,-6.0973,-6.109,-6.0935,-6.1094,-6.0972,-6.1008,-6.1001,-6.101,-6.1016,-6.0843,-6.1106,-6.1546,-6.1589,-6.1023,-6.1018,-6.1014,0,-6.0851,-6.0963,-6.1106,-6.1123,-6.1114,-6.1184,-6.1183,-6.1188,-6.1228,-6.1269,-6.1293,-6.1349,-6.1379,-6.1423,-6.1359,-6.1252,-6.1527,-6.1367,-6.1509,-6.1511,-6.1572,-6.1569,-6.2023,-6.1598,-6.1597,-6.1597,-6.1596,0,-6.1197,-6.1334,-6.1243,-6.1332,-6.1482,-6.1396,-6.1547,-6.1532,-6.1537,-6.162,-6.151,-6.1591,-6.1501,-6.1573,-6.1524,-6.1663,-6.1678,-6.166,-6.1645,-6.1669,-6.1671,-6.1691,-6.1669,-6.1608,-6.1605,-6.1603,-6.1601,0,-6.1563,-6.1508,-6.1655,-6.1635,-6.1633,-6.1744,-6.1726,-6.1807,-6.1773,-6.188,-6.19,-6.1847,-6.1926,-6.1866,-6.1945,-6.1911,-6.2094,-6.2052,-6.209,-6.2078,-6.2223,-6.221,-6.2704,-6.2764,-6.2303,-6.2307,-6.2311,0,-6.1787,-6.1889,-6.1879,-6.1927,-6.1933,-6.2012,-6.2051,-6.197,-6.2016,-6.2039,-6.2118,-6.2187,-6.2238,-6.2371,-6.234,-6.2399,-6.2356,-6.2526,-6.2365,-6.2386,-6.2358,-6.2352,-6.2361,-6.2558,-6.2564,-6.2568,-6.2572,0,-6.2189,-6.2157,-6.2218,-6.227,-6.232,-6.2357,-6.2385,-6.2431,-6.2349,-6.2406,-6.2485,-6.2525,-6.2605,-6.2676,-6.2724,-6.2723,-6.2635,-6.2623,-6.2658,-6.2684,-6.2701,-6.2692,-6.2177,-6.2612,-6.2608,-6.2605,-6.2602,-6.2601,-6.249,-6.2574,-6.2581,-6.2652,-6.2665,-6.2694,-6.2769,-6.2744,-6.2808,-6.2866,-6.2815,-6.2911,-6.2921,-6.2976,-6.2987,-6.306,-6.299,-6.3042,-6.3055,-6.3069,-6.3089,-6.2691,-6.3069,-6.3067,-6.3066,-6.3065,-6.3064,0,-6.2886,-6.2883,-6.295,-6.2992,-6.3049,-6.296,-6.2987,-6.304,-6.3125,-6.3142,-6.3195,-6.3286,-6.3354,-6.3328,-6.3388,-6.3452,-6.3413,-6.347,-6.3464,-6.3465,-6.3149,-6.3111,-6.3501,-6.35,-6.35,-6.35,-6.35,-6.35,-6.3098,-6.3236,-6.3205,-6.3348,-6.3344,-6.3436,-6.3459,-6.3485,-6.3498,-6.3604,-6.366,-6.3642,-6.3642,-6.3701,-6.376,-6.375,-6.3777,-6.3849,-6.3826,-6.353,-6.3487,-6.3446,-6.341,-6.3856,-6.3857,-6.4135,-6.4137,-6.4139]},{"header":{"parameterUnit":"m.s-1","parameterCategory":1,"la1":30.2991,"la2":30.254,"lo1":-89.0895,"lo2":-89.0444,"dy":0.0017,"dx":0.0017,"nx":28,"ny":28,"refTime":"2024-06-19T21:00:00:Z","depth":0,"parameterNumber":3,"parameterNumberName":"V-component_of_WINDS"},"data":[0,0,0,0,0,0,0,0,0,0,0,0,0,0,0,0,0,0,0,0,0,0,0,0,0,0,0,0,0,0,0,0,0,0,0,0,0,0,0,0,0,0,0,0,0,0,0,0,0,0,0,0,0,0,0,0,0,0,-0.6958,-0.6958,0,-0.6952,-0.6952,-0.6952,-0.6999,-0.7001,-0.7002,-0.7003,-0.6994,-0.6993,-0.6991,0,0,0,0,0,0,0,0,0,0,0,0,0,-0.7006,-0.7005,-0.6958,-0.6958,-0.6958,-0.6952,-0.6952,-0.6952,-0.6999,-0.7001,-0.7002,-0.7004,-0.6995,-0.6993,-0.6991,0,0,0,0,0,0,0,0,0,0,0,0,0,-0.6991,-0.7005,-0.6958,-0.6981,-0.6983,-0.6952,-0.6952,-0.6952,-0.6999,-0.7001,-0.7003,-0.7005,-0.6995,-0.6993,-0.6991,-0.6937,0,0,-0.6984,-0.6983,0,0,0,0,0,0,0,0,-0.6992,-0.6989,-0.6978,-0.6979,-0.6981,-0.6979,-0.6966,-0.6947,-0.6998,-0.6993,-0.7003,-0.7006,-0.6987,-0.6986,-0.698,-0.6937,-0.6937,-0.6984,-0.6983,-0.6982,-0.6981,0,0,0,0,0,0,0,-0.6993,-0.699,-0.6956,-0.6977,-0.698,-0.699,-0.699,-0.6962,-0.6979,-0.6993,-0.6997,-0.6995,-0.6989,-0.6982,-0.698,-0.6937,-0.6984,-0.6982,-0.6981,-0.698,-0.6845,-0.6843,0,0,0,0,0,0,-0.6991,-0.699,-0.6956,-0.6956,-0.6992,-0.6987,-0.6988,-0.6977,-0.6979,-0.6981,-0.6994,-0.6998,-0.6985,-0.6983,-0.698,-0.6915,-0.6982,-0.698,-0.6978,-0.6848,-0.6845,-0.6842,0,0,0,0,0,0,-0.6992,-0.6988,-0.6956,-0.6974,-0.6971,-0.6985,-0.6973,-0.6976,-0.697,-0.698,-0.6982,-0.6984,-0.6987,-0.6983,-0.6947,-0.6915,-0.6979,-0.6977,-0.685,-0.6847,-0.6844,-0.6786,0,0,0,0,0,0,-0.6993,-0.6988,-0.6969,-0.6973,-0.697,-0.6924,-0.6971,-0.6975,-0.6966,-0.6971,-0.6972,-0.6974,-0.6988,-0.695,-0.6945,-0.6914,-0.6975,-0.6853,-0.6849,-0.6845,-0.679,-0.6781,-0.6772,0,0,0,0,0,-0.6995,-0.6953,-0.6968,-0.6963,-0.6946,-0.6922,-0.692,-0.6938,-0.6964,-0.6944,-0.6949,-0.6974,-0.692,-0.6946,-0.6941,-0.6908,-0.6855,-0.685,-0.6845,-0.6794,-0.6783,-0.6773,0,0,0,0,0,0,-0.6944,-0.6954,-0.697,-0.6929,-0.6924,-0.693,-0.6906,-0.6926,-0.6914,-0.6919,-0.6941,-0.694,-0.69,-0.6901,-0.6929,-0.6855,-0.6892,-0.6885,-0.6855,-0.6844,-0.6835,-0.6835,-0.6973,0,0,0,0,0,-0.6928,-0.6909,-0.6918,-0.6881,-0.6878,-0.6892,-0.6882,-0.6897,-0.6893,-0.6891,-0.6894,-0.6888,-0.687,-0.6858,-0.6842,-0.6791,-0.679,-0.6766,-0.6757,-0.675,-0.6743,-0.6713,-0.6702,-0.6826,-0.6826,-0.6826,0,0,-0.6894,-0.6898,-0.6884,-0.687,-0.6869,-0.6847,-0.689,-0.6866,-0.6849,-0.6887,-0.6852,-0.6854,-0.6849,-0.6805,-0.6786,-0.6804,-0.6709,-0.6743,-0.6737,-0.6735,-0.6707,-0.6695,-0.6684,-0.6822,-0.6823,-0.6824,0,0,-0.6822,-0.6823,-0.6791,-0.6788,-0.6785,-0.6794,-0.6786,-0.6789,-0.6792,-0.6758,-0.6785,-0.6765,-0.6734,-0.6728,-0.6721,-0.6644,-0.6664,-0.6638,-0.659,-0.6561,-0.6551,-0.6542,-0.6511,-0.6501,-0.6632,-0.6632,-0.6631,0,-0.678,-0.6749,-0.6771,-0.6744,-0.6736,-0.677,-0.6735,-0.6731,-0.6723,-0.6715,-0.6737,-0.6697,-0.6696,-0.6649,-0.663,-0.6624,-0.6614,-0.6637,-0.6551,-0.6542,-0.6534,-0.6505,-0.6494,-0.6628,-0.6629,-0.6629,-0.6629,0,-0.6697,-0.6675,-0.6649,-0.6639,-0.6628,-0.6598,-0.6613,-0.6599,-0.6614,-0.662,-0.6584,-0.6584,-0.6567,-0.6557,-0.6572,-0.6511,-0.6523,-0.6547,-0.6585,-0.6519,-0.6492,-0.6481,-0.6623,-0.6625,-0.6626,-0.6626,0,0,-0.6591,-0.6594,-0.6583,-0.6578,-0.6577,-0.6559,-0.6529,-0.6513,-0.6499,-0.6492,-0.6466,-0.6438,-0.6459,-0.6451,-0.6465,-0.644,-0.6375,-0.6467,-0.6467,-0.6447,-0.6304,-0.6284,-0.6271,-0.6389,-0.6387,-0.6386,-0.6304,0,-0.6518,-0.6468,-0.6485,-0.6433,-0.6411,-0.6442,-0.6416,-0.6411,-0.6416,-0.6397,-0.6402,-0.638,-0.6413,-0.6407,-0.6384,-0.6388,-0.6346,-0.6394,-0.6362,-0.636,-0.636,-0.6258,-0.6237,-0.6159,-0.6294,-0.6292,-0.6291,0,-0.6426,-0.6414,-0.636,-0.636,-0.6351,-0.6327,-0.6312,-0.6295,-0.6289,-0.6294,-0.6284,-0.6302,-0.627,-0.6309,-0.6264,-0.6296,-0.6284,-0.6284,-0.6281,-0.6277,-0.632,-0.6248,-0.6136,-0.6123,-0.6275,-0.6276,-0.6277,0,-0.6351,-0.6322,-0.6285,-0.628,-0.628,-0.6261,-0.626,-0.6256,-0.6244,-0.6231,-0.6223,-0.6207,-0.6196,-0.6182,-0.6194,-0.6222,-0.6146,-0.6187,-0.6147,-0.6146,-0.6128,-0.6128,-0.6009,-0.6124,-0.6124,-0.6125,-0.6125,0,-0.6265,-0.623,-0.6251,-0.6227,-0.6188,-0.6208,-0.6168,-0.617,-0.6166,-0.6142,-0.6168,-0.6145,-0.6164,-0.6142,-0.6152,-0.6111,-0.6107,-0.6108,-0.6111,-0.6104,-0.6104,-0.6095,-0.6099,-0.6122,-0.6122,-0.6123,-0.6123,0,-0.6174,-0.6187,-0.6148,-0.615,-0.615,-0.612,-0.6122,-0.6099,-0.6106,-0.6075,-0.6069,-0.6079,-0.6054,-0.6066,-0.604,-0.6046,-0.5992,-0.6003,-0.5994,-0.5996,-0.5954,-0.5957,-0.5823,-0.5805,-0.5934,-0.5933,-0.5932,0,-0.6118,-0.6091,-0.609,-0.6077,-0.6074,-0.6052,-0.6039,-0.6058,-0.6044,-0.6034,-0.6011,-0.5989,-0.5972,-0.593,-0.5933,-0.5913,-0.5922,-0.5876,-0.5918,-0.5912,-0.5917,-0.5917,-0.5913,-0.5867,-0.5865,-0.5864,-0.5863,0,-0.6015,-0.6022,-0.6005,-0.5988,-0.5973,-0.5961,-0.5951,-0.5938,-0.5955,-0.5938,-0.5913,-0.59,-0.5872,-0.5848,-0.583,-0.5827,-0.5846,-0.585,-0.5839,-0.5831,-0.5825,-0.5825,-0.5968,-0.5853,-0.5854,-0.5854,-0.5855,-0.5855,-0.5937,-0.5914,-0.5909,-0.5888,-0.5882,-0.5872,-0.585,-0.5854,-0.5833,-0.5813,-0.5825,-0.5794,-0.5787,-0.5764,-0.5758,-0.5733,-0.575,-0.5735,-0.5731,-0.5726,-0.5719,-0.5832,-0.573,-0.573,-0.573,-0.5731,-0.5731,0,-0.5833,-0.5832,-0.5812,-0.5797,-0.5779,-0.5801,-0.579,-0.5773,-0.5747,-0.5739,-0.5721,-0.569,-0.5666,-0.5668,-0.5646,-0.5625,-0.5633,-0.5618,-0.5618,-0.5617,-0.5706,-0.5717,-0.5612,-0.5612,-0.5612,-0.5612,-0.5612,-0.5612,-0.5777,-0.5738,-0.5744,-0.5701,-0.5699,-0.567,-0.5662,-0.5651,-0.5644,-0.5609,-0.559,-0.5592,-0.5586,-0.5563,-0.5541,-0.5542,-0.5531,-0.5512,-0.5516,-0.5599,-0.5611,-0.5622,-0.5631,-0.551,-0.551,-0.5428,-0.5427,-0.5426]}]]